Port Edwards, WI

5:24 PM CST on December 04, 2016 (GMT -0600)
Alexander Field South Wood County

Weather History for KISW - September, 2013

Change the Weather History Date:

Monday, September 23, 2013

  Actual Average Record
Temperature  
Mean Temperature 54 °F -  
Max Temperature 70 °F 63 °F 83 °F (1958)
Min Temperature 39 °F 40 °F 21 °F (1974)
Degree Days  
Heating Degree Days 11    
Growing Degree Days 4 (Base 50)    
Moisture  
Dew Point 45 °F    
Average Humidity 73    
Maximum Humidity 97    
Minimum Humidity 47    
Precipitation  
Precipitation 0.00 in - - ()
Sea Level Pressure  
Sea Level Pressure 30.09 in    
Wind  
Wind Speed 5 mph (SE)    
Max Wind Speed 12 mph    
Max Gust Speed 18 mph    
Visibility 10 miles    
Events      
Averages and records for this station are not official NWS values.
T = Trace of Precipitation, MM = Missing Value Source: NWS Daily Summary

Daily Weather History Graph

Daily Weather History Graph

Search for Another Location

Airport or City:

Trip Planner

Search our weather history database for the weather conditions in past years. The results will help you decide how hot, cold, wet, or windy it might be!

Date:

Astronomy

Sep. 23, 2013 Rise Set
Actual Time 6:47 AM CDT 6:54 PM CDT
Civil Twilight 6:18 AM CDT 7:23 PM CDT
Nautical Twilight 5:45 AM CDT 7:57 PM CDT
Astronomical Twilight 5:10 AM CDT 8:31 PM CDT
Moon 9:15 PM CDT (9/23) 11:17 AM CDT (9/23)
Length of Visible Light 13h 04m
Length of Day
12h 06m
Waning Gibbous, 81% of the Moon is Illuminated
Sep 23
Waning Gibbous
Sep 26
Last Quarter
Oct 4
New
Oct 11
First Quarter
Oct 18
Full

Hourly Weather History & Observations

Time (CDT) Temp. Windchill Dew Point Humidity Pressure Visibility Wind Dir Wind Speed Gust Speed Precip Events Conditions
12:54 AM 45.0 °F 43.5 °F 41.0 °F 86% 30.09 in 10.0 mi ESE 3.5 mph - N/A   Clear
1:54 AM 44.1 °F - 41.0 °F 89% 30.09 in 10.0 mi Calm Calm - N/A   Clear
2:54 AM 41.0 °F - 39.9 °F 96% 30.09 in 10.0 mi Calm Calm - N/A   Clear
3:54 AM 41.0 °F 39.0 °F 39.0 °F 93% 30.10 in 10.0 mi East 3.5 mph - N/A   Clear
4:54 AM 41.0 °F 38.0 °F 39.0 °F 93% 30.10 in 10.0 mi East 4.6 mph - N/A   Clear
5:54 AM 39.9 °F 36.7 °F 39.0 °F 97% 30.11 in 10.0 mi East 4.6 mph - N/A   Clear
6:54 AM 39.9 °F 36.7 °F 39.0 °F 97% 30.12 in 10.0 mi East 4.6 mph - N/A   Clear
7:54 AM 45.0 °F 42.6 °F 42.1 °F 90% 30.13 in 10.0 mi ESE 4.6 mph - N/A   Clear
8:54 AM 51.1 °F - 45.0 °F 80% 30.14 in 10.0 mi SE 6.9 mph - N/A   Clear
9:54 AM 57.9 °F - 46.9 °F 67% 30.14 in 10.0 mi SE 8.1 mph - N/A   Clear
10:54 AM 61.0 °F - 46.9 °F 60% 30.14 in 10.0 mi South 9.2 mph - N/A   Clear
11:54 AM 64.0 °F - 46.0 °F 52% 30.12 in 10.0 mi SSE 9.2 mph - N/A   Clear
12:54 PM 66.0 °F - 46.9 °F 50% 30.10 in 10.0 mi South 8.1 mph - N/A   Clear
1:54 PM 66.9 °F - 48.0 °F 51% 30.09 in 10.0 mi SSE 9.2 mph - N/A   Clear
2:54 PM 69.1 °F - 48.0 °F 47% 30.06 in 10.0 mi ESE 11.5 mph 18.4 mph N/A   Clear
3:54 PM 68.0 °F - 46.9 °F 47% 30.06 in 10.0 mi SSE 6.9 mph 16.1 mph N/A   Clear
4:54 PM 68.0 °F - 48.0 °F 49% 30.05 in 10.0 mi ESE 6.9 mph - N/A   Clear
5:54 PM 66.0 °F - 46.9 °F 50% 30.05 in 10.0 mi SE 8.1 mph - N/A   Clear
6:54 PM 62.1 °F - 48.0 °F 60% 30.06 in 10.0 mi SE 3.5 mph - N/A   Clear
7:54 PM 57.9 °F - 48.0 °F 70% 30.06 in 10.0 mi ESE 6.9 mph - N/A   Clear
8:54 PM 55.0 °F - 48.0 °F 77% 30.07 in 10.0 mi ESE 9.2 mph - N/A   Clear
9:54 PM 53.1 °F - 48.0 °F 83% 30.07 in 10.0 mi ESE 6.9 mph - N/A   Clear
10:54 PM 50.0 °F - 46.0 °F 86% 30.08 in 10.0 mi ESE 5.8 mph - N/A   Clear
11:54 PM 48.9 °F - 45.0 °F 86% 30.07 in 10.0 mi ESE 3.5 mph - N/A   Clear